[[{"header":{"parameterUnit":"m.s-1","parameterCategory":1,"la1":30.2991,"la2":30.254,"lo1":-89.0895,"lo2":-89.0444,"dy":0.0017,"dx":0.0017,"nx":28,"ny":28,"refTime":"2024-08-09T03:00:00:Z","depth":0,"parameterNumber":2,"parameterNumberName":"U-component_of_WINDS"},"data":[0,0,0,0,0,0,0,0,0,0,0,0,0,0,0,0,0,0,0,0,0,0,0,0,0,0,0,0,0,0,0,0,0,0,0,0,0,0,0,0,0,0,0,0,0,0,0,0,0,0,0,0,0,0,0,0,0,0,-0.5742,-0.5742,0,-0.5755,-0.5755,-0.5755,-0.5691,-0.569,-0.5688,-0.5686,-0.5703,-0.5705,-0.5707,0,0,0,0,0,0,0,0,0,0,0,0,0,-0.5664,-0.5666,-0.5742,-0.5742,-0.5742,-0.5755,-0.5755,-0.5756,-0.5692,-0.5689,-0.5687,-0.5685,-0.5702,-0.5705,-0.5707,0,0,0,0,0,0,0,0,0,0,0,0,0,-0.569,-0.5666,-0.5742,-0.5712,-0.5709,-0.5755,-0.5755,-0.5756,-0.5692,-0.5689,-0.5687,-0.5684,-0.5701,-0.5704,-0.5707,-0.5784,0,0,-0.5717,-0.5719,0,0,0,0,0,0,0,0,-0.5688,-0.5693,-0.5716,-0.5714,-0.5711,-0.5719,-0.5734,-0.5765,-0.5693,-0.5699,-0.5686,-0.5683,-0.571,-0.5713,-0.5721,-0.5784,-0.5785,-0.5718,-0.572,-0.5721,-0.5722,0,0,0,0,0,0,0,-0.5687,-0.5692,-0.5747,-0.5717,-0.5714,-0.5699,-0.5699,-0.5739,-0.572,-0.5698,-0.5693,-0.5696,-0.5709,-0.5719,-0.5721,-0.5785,-0.5718,-0.5721,-0.5723,-0.5724,-0.5911,-0.5914,0,0,0,0,0,0,-0.5688,-0.5691,-0.5747,-0.5748,-0.5693,-0.5702,-0.5703,-0.5719,-0.572,-0.5717,-0.5698,-0.5693,-0.5714,-0.5718,-0.5722,-0.5811,-0.5721,-0.5724,-0.5726,-0.5908,-0.5911,-0.5915,0,0,0,0,0,0,-0.5687,-0.5694,-0.5746,-0.5718,-0.5723,-0.5707,-0.5726,-0.5721,-0.5731,-0.572,-0.5716,-0.5712,-0.5712,-0.5717,-0.5768,-0.5811,-0.5726,-0.5729,-0.5904,-0.5909,-0.5913,-0.599,0,0,0,0,0,0,-0.5685,-0.5694,-0.5722,-0.5719,-0.5725,-0.5793,-0.5728,-0.5723,-0.5736,-0.5729,-0.5731,-0.5729,-0.571,-0.5764,-0.5772,-0.5814,-0.5731,-0.59,-0.5906,-0.5912,-0.5984,-0.5997,-0.6008,0,0,0,0,0,-0.5682,-0.5745,-0.5724,-0.5731,-0.576,-0.5795,-0.5799,-0.5775,-0.574,-0.5769,-0.5761,-0.5729,-0.5804,-0.577,-0.5778,-0.5822,-0.5898,-0.5905,-0.5911,-0.5979,-0.5994,-0.6008,0,0,0,0,0,0,-0.5755,-0.5744,-0.5721,-0.5784,-0.5791,-0.5784,-0.582,-0.5793,-0.5811,-0.5804,-0.5774,-0.5775,-0.5832,-0.5831,-0.5793,-0.5895,-0.5845,-0.5854,-0.5893,-0.5908,-0.592,-0.592,-0.5734,0,0,0,0,0,-0.5778,-0.5807,-0.5795,-0.5852,-0.5856,-0.5838,-0.5852,-0.5833,-0.5839,-0.5842,-0.5839,-0.5847,-0.5872,-0.589,-0.5913,-0.5983,-0.5983,-0.6017,-0.6029,-0.6039,-0.6047,-0.6084,-0.6099,-0.5937,-0.5937,-0.5937,0,0,-0.5827,-0.5824,-0.5844,-0.5866,-0.5869,-0.59,-0.5841,-0.5876,-0.5899,-0.5848,-0.5896,-0.5893,-0.5901,-0.5962,-0.5988,-0.5963,-0.6091,-0.6047,-0.6055,-0.6058,-0.6092,-0.6108,-0.6122,-0.5941,-0.5941,-0.594,0,0,-0.5931,-0.5932,-0.5979,-0.5982,-0.5987,-0.5974,-0.5985,-0.5982,-0.5979,-0.6026,-0.5988,-0.6015,-0.6059,-0.6066,-0.6075,-0.618,-0.6151,-0.6188,-0.6251,-0.6288,-0.63,-0.6312,-0.635,-0.6364,-0.6196,-0.6196,-0.6196,0,-0.5992,-0.6036,-0.6007,-0.6044,-0.6055,-0.6008,-0.6056,-0.6061,-0.6074,-0.6083,-0.6054,-0.6108,-0.6109,-0.6171,-0.6196,-0.6205,-0.6218,-0.6189,-0.6301,-0.6312,-0.6322,-0.6358,-0.6372,-0.6201,-0.62,-0.62,-0.6199,0,-0.611,-0.6141,-0.6178,-0.619,-0.6205,-0.6248,-0.6225,-0.6244,-0.6222,-0.6213,-0.6261,-0.6261,-0.6283,-0.6295,-0.6276,-0.6354,-0.6338,-0.6305,-0.6255,-0.6342,-0.6376,-0.6389,-0.6207,-0.6205,-0.6204,-0.6203,0,0,-0.6264,-0.6256,-0.6271,-0.6275,-0.6276,-0.63,-0.634,-0.636,-0.6377,-0.6386,-0.642,-0.6457,-0.6426,-0.6437,-0.6417,-0.6448,-0.6532,-0.6411,-0.6411,-0.6435,-0.6619,-0.6644,-0.6661,-0.6512,-0.6514,-0.6516,-0.6618,0,-0.6366,-0.6434,-0.6408,-0.6477,-0.6506,-0.6461,-0.6495,-0.65,-0.6491,-0.6514,-0.6504,-0.6532,-0.6489,-0.6495,-0.6524,-0.6516,-0.6569,-0.6507,-0.6544,-0.6545,-0.6545,-0.6678,-0.6706,-0.6803,-0.6631,-0.6633,-0.6635,0,-0.6496,-0.651,-0.6582,-0.6577,-0.6588,-0.6619,-0.6635,-0.6657,-0.6661,-0.6652,-0.6663,-0.6636,-0.6675,-0.6623,-0.6677,-0.6636,-0.6649,-0.6647,-0.665,-0.6654,-0.6597,-0.6687,-0.6833,-0.6848,-0.6655,-0.6653,-0.6652,0,-0.6602,-0.6638,-0.6686,-0.6691,-0.6686,-0.6709,-0.6708,-0.6709,-0.6722,-0.6736,-0.6744,-0.6762,-0.6773,-0.6788,-0.6766,-0.673,-0.6824,-0.677,-0.6818,-0.6819,-0.6842,-0.6841,-0.6993,-0.6848,-0.6848,-0.6847,-0.6847,0,-0.6721,-0.6768,-0.6733,-0.6763,-0.6813,-0.6782,-0.6833,-0.6827,-0.6828,-0.6856,-0.6818,-0.6845,-0.6814,-0.6839,-0.6822,-0.6869,-0.6874,-0.6869,-0.6864,-0.6873,-0.6874,-0.6883,-0.6876,-0.6851,-0.685,-0.6849,-0.6849,0,-0.6849,-0.6828,-0.6877,-0.6867,-0.6866,-0.6903,-0.6895,-0.6922,-0.6909,-0.6945,-0.6952,-0.6933,-0.6959,-0.6938,-0.6965,-0.6954,-0.7017,-0.7002,-0.7015,-0.7012,-0.7062,-0.7058,-0.7226,-0.7247,-0.7087,-0.7088,-0.709,0,-0.6928,-0.6962,-0.6955,-0.697,-0.6971,-0.6997,-0.7009,-0.6979,-0.6994,-0.7,-0.7027,-0.705,-0.7067,-0.7111,-0.71,-0.712,-0.7106,-0.7163,-0.7109,-0.7117,-0.7108,-0.7107,-0.7111,-0.7175,-0.7177,-0.7179,-0.718,0,-0.7069,-0.7056,-0.7075,-0.7091,-0.7106,-0.7117,-0.7125,-0.714,-0.7109,-0.7128,-0.7154,-0.7167,-0.7193,-0.7216,-0.7232,-0.7231,-0.7201,-0.7197,-0.7209,-0.722,-0.7227,-0.7225,-0.7047,-0.7194,-0.7192,-0.7191,-0.7191,-0.719,-0.7175,-0.7203,-0.7202,-0.7225,-0.7227,-0.7235,-0.726,-0.7249,-0.727,-0.7288,-0.7269,-0.73,-0.7302,-0.7319,-0.7322,-0.7347,-0.7323,-0.7341,-0.7346,-0.7351,-0.7359,-0.7221,-0.7349,-0.7349,-0.7349,-0.7348,-0.7348,0,-0.7316,-0.7312,-0.7333,-0.7344,-0.7362,-0.7329,-0.7336,-0.7353,-0.7381,-0.7384,-0.7401,-0.743,-0.7452,-0.7442,-0.7461,-0.7483,-0.7469,-0.7489,-0.7488,-0.7489,-0.7379,-0.7366,-0.7499,-0.7499,-0.7499,-0.7499,-0.7499,-0.7499,-0.7391,-0.7437,-0.7424,-0.747,-0.7466,-0.7496,-0.7502,-0.7509,-0.7512,-0.7546,-0.7563,-0.7556,-0.7554,-0.7572,-0.7591,-0.7587,-0.7596,-0.7621,-0.7613,-0.7511,-0.7496,-0.7482,-0.7471,-0.7623,-0.7623,-0.7721,-0.7722,-0.7723]},{"header":{"parameterUnit":"m.s-1","parameterCategory":1,"la1":30.2991,"la2":30.254,"lo1":-89.0895,"lo2":-89.0444,"dy":0.0017,"dx":0.0017,"nx":28,"ny":28,"refTime":"2024-08-09T03:00:00:Z","depth":0,"parameterNumber":3,"parameterNumberName":"V-component_of_WINDS"},"data":[0,0,0,0,0,0,0,0,0,0,0,0,0,0,0,0,0,0,0,0,0,0,0,0,0,0,0,0,0,0,0,0,0,0,0,0,0,0,0,0,0,0,0,0,0,0,0,0,0,0,0,0,0,0,0,0,0,0,-4.3764,-4.3765,0,-4.3823,-4.3823,-4.3824,-4.3729,-4.3725,-4.3722,-4.3719,-4.3777,-4.3781,-4.3786,0,0,0,0,0,0,0,0,0,0,0,0,0,-4.3567,-4.3571,-4.3764,-4.3765,-4.3766,-4.3823,-4.3823,-4.3824,-4.3729,-4.3725,-4.3721,-4.3718,-4.3775,-4.3781,-4.3786,0,0,0,0,0,0,0,0,0,0,0,0,0,-4.3642,-4.3572,-4.3764,-4.3725,-4.3722,-4.3822,-4.3823,-4.3824,-4.373,-4.3725,-4.372,-4.3716,-4.3774,-4.378,-4.3787,-4.3927,0,0,-4.3808,-4.3811,0,0,0,0,0,0,0,0,-4.3638,-4.3649,-4.373,-4.3728,-4.3725,-4.3763,-4.3775,-4.3859,-4.3731,-4.3727,-4.3719,-4.3713,-4.3776,-4.3783,-4.3804,-4.393,-4.3933,-4.3809,-4.3813,-4.3816,-4.3818,0,0,0,0,0,0,0,-4.3633,-4.3646,-4.3787,-4.3731,-4.3728,-4.3704,-4.3709,-4.379,-4.3778,-4.3727,-4.372,-4.3729,-4.3774,-4.3798,-4.3805,-4.3933,-4.3809,-4.3815,-4.3819,-4.3822,-4.4176,-4.4181,0,0,0,0,0,0,-4.3632,-4.3642,-4.3785,-4.3789,-4.3668,-4.3711,-4.3717,-4.3756,-4.3777,-4.3776,-4.3733,-4.3724,-4.3789,-4.3797,-4.3807,-4.3971,-4.3816,-4.3822,-4.3826,-4.4171,-4.4177,-4.4183,0,0,0,0,0,0,-4.3629,-4.3646,-4.3783,-4.3714,-4.3729,-4.372,-4.3764,-4.376,-4.3784,-4.3781,-4.3779,-4.376,-4.3785,-4.3797,-4.3898,-4.3972,-4.3825,-4.3832,-4.4164,-4.4173,-4.418,-4.4303,0,0,0,0,0,0,-4.3623,-4.3645,-4.3699,-4.3716,-4.3733,-4.3875,-4.3769,-4.3764,-4.3796,-4.3785,-4.3806,-4.3805,-4.3782,-4.3888,-4.3905,-4.3979,-4.3837,-4.4158,-4.4168,-4.4177,-4.4293,-4.4314,-4.4333,0,0,0,0,0,-4.3617,-4.3732,-4.3703,-4.372,-4.3801,-4.3879,-4.3889,-4.3861,-4.3802,-4.3856,-4.3854,-4.3804,-4.3961,-4.3899,-4.3917,-4.3995,-4.4153,-4.4165,-4.4177,-4.4283,-4.431,-4.4333,0,0,0,0,0,0,-4.3724,-4.3733,-4.3701,-4.3825,-4.3852,-4.3863,-4.393,-4.3891,-4.3935,-4.3922,-4.3885,-4.3891,-4.3999,-4.4007,-4.3938,-4.4131,-4.4047,-4.4063,-4.4122,-4.4148,-4.4167,-4.4163,-4.3843,0,0,0,0,0,-4.3762,-4.3826,-4.383,-4.3939,-4.3954,-4.394,-4.3973,-4.3949,-4.3975,-4.3986,-4.3992,-4.4019,-4.4074,-4.4111,-4.4162,-4.4293,-4.4295,-4.4355,-4.4375,-4.4392,-4.4406,-4.4475,-4.4501,-4.4222,-4.4222,-4.4221,0,0,-4.3841,-4.3854,-4.3896,-4.396,-4.3979,-4.4044,-4.395,-4.4024,-4.4072,-4.3997,-4.4093,-4.4098,-4.4125,-4.4242,-4.4293,-4.4251,-4.4484,-4.4407,-4.442,-4.4426,-4.449,-4.4516,-4.454,-4.423,-4.4228,-4.4227,0,0,-4.4019,-4.4036,-4.4128,-4.4148,-4.4177,-4.4166,-4.4189,-4.4206,-4.4206,-4.4302,-4.4247,-4.4303,-4.4399,-4.442,-4.4444,-4.4629,-4.4584,-4.4646,-4.4753,-4.482,-4.4842,-4.4862,-4.4927,-4.4951,-4.4661,-4.4661,-4.4661,0,-4.4114,-4.4212,-4.418,-4.4258,-4.4287,-4.4222,-4.4315,-4.4335,-4.4379,-4.44,-4.4353,-4.4472,-4.4485,-4.4606,-4.4651,-4.4672,-4.4695,-4.4644,-4.4842,-4.4861,-4.4878,-4.494,-4.4965,-4.4668,-4.4668,-4.4667,-4.4666,0,-4.4326,-4.4395,-4.4465,-4.451,-4.4547,-4.4632,-4.4612,-4.4653,-4.4626,-4.462,-4.4718,-4.4732,-4.4784,-4.481,-4.4784,-4.4927,-4.49,-4.4848,-4.4763,-4.4913,-4.4971,-4.4994,-4.4679,-4.4676,-4.4674,-4.4672,0,0,-4.4574,-4.4599,-4.4626,-4.4645,-4.4671,-4.4723,-4.4804,-4.4856,-4.4891,-4.4923,-4.499,-4.5072,-4.5024,-4.5051,-4.5026,-4.5086,-4.523,-4.5026,-4.5026,-4.5063,-4.5387,-4.5426,-4.5454,-4.5201,-4.5205,-4.5209,-4.5385,0,-4.4751,-4.4892,-4.4865,-4.5002,-4.5064,-4.5003,-4.5073,-4.5097,-4.5094,-4.5145,-4.514,-4.52,-4.5132,-4.5147,-4.5203,-4.5201,-4.5295,-4.5188,-4.5261,-4.5264,-4.5256,-4.5485,-4.5526,-4.5692,-4.5407,-4.5411,-4.5414,0,-4.4976,-4.5017,-4.5161,-4.5176,-4.5201,-4.5265,-4.531,-4.536,-4.5385,-4.5378,-4.5408,-4.5372,-4.5451,-4.5365,-4.5473,-4.5401,-4.5429,-4.5432,-4.5438,-4.5444,-4.5348,-4.5496,-4.5744,-4.5769,-4.5449,-4.5446,-4.5444,0,-4.5142,-4.5233,-4.533,-4.5348,-4.5369,-4.5415,-4.5426,-4.5446,-4.5478,-4.5517,-4.5537,-4.5584,-4.561,-4.5647,-4.5624,-4.5564,-4.5736,-4.5648,-4.5732,-4.5733,-4.5771,-4.5769,-4.6027,-4.579,-4.5789,-4.5789,-4.5788,0,-4.5342,-4.5432,-4.5405,-4.5465,-4.5563,-4.5531,-4.5629,-4.5632,-4.5651,-4.5709,-4.5659,-4.5715,-4.5681,-4.5734,-4.5717,-4.5808,-4.582,-4.5816,-4.5811,-4.5821,-4.5822,-4.5839,-4.5827,-4.5795,-4.5794,-4.5793,-4.5791,0,-4.5545,-4.553,-4.5632,-4.5643,-4.5648,-4.572,-4.5729,-4.5785,-4.5777,-4.5852,-4.5867,-4.5856,-4.5915,-4.5896,-4.596,-4.5948,-4.6064,-4.6044,-4.6056,-4.6051,-4.6136,-4.6128,-4.6414,-4.645,-4.619,-4.6192,-4.6194,0,-4.5673,-4.5741,-4.576,-4.5796,-4.5811,-4.5869,-4.5902,-4.5872,-4.5908,-4.5941,-4.5992,-4.6047,-4.609,-4.6187,-4.6184,-4.6232,-4.6212,-4.6309,-4.6219,-4.6227,-4.6213,-4.6209,-4.6215,-4.6327,-4.633,-4.6332,-4.6334,0,-4.5904,-4.5893,-4.5942,-4.599,-4.603,-4.6065,-4.6096,-4.6128,-4.61,-4.6143,-4.6204,-4.6237,-4.6302,-4.6357,-4.64,-4.641,-4.6368,-4.6363,-4.6384,-4.6396,-4.64,-4.6398,-4.6105,-4.6356,-4.6354,-4.6352,-4.6351,-4.635,-4.6073,-4.613,-4.6152,-4.6208,-4.6228,-4.6258,-4.631,-4.6309,-4.636,-4.6411,-4.639,-4.6459,-4.6481,-4.6535,-4.655,-4.6603,-4.6566,-4.6598,-4.6606,-4.6614,-4.6625,-4.6392,-4.6611,-4.661,-4.661,-4.6609,-4.6609,0,-4.63,-4.6311,-4.6363,-4.6408,-4.6452,-4.6409,-4.644,-4.648,-4.6542,-4.6566,-4.6609,-4.6678,-4.6731,-4.6731,-4.678,-4.6822,-4.6804,-4.6836,-4.6833,-4.6835,-4.6655,-4.6632,-4.685,-4.685,-4.685,-4.685,-4.685,-4.685,-4.6423,-4.6517,-4.6509,-4.6612,-4.6622,-4.669,-4.6712,-4.6738,-4.6757,-4.6837,-4.6881,-4.6881,-4.6895,-4.6944,-4.699,-4.6989,-4.7009,-4.7049,-4.704,-4.6872,-4.6848,-4.6825,-4.6803,-4.7053,-4.7054,-4.7215,-4.7217,-4.7218]}]]